Weather in Borisoglebsky

Russia / Murmansk Oblast     69°39′01″N   30°08′42″E
temp.,
°C
wind,
m/s
gust,
m/s
humid.,
%
clouds,
%
prec.,
mm/h
press.,
hPa
HPBL,
m
8 august, mon
mon800:00+9w71183100 0.0 1008620
03:00+9w91184100 0.4 1009729
06:00+9wnw81088100 0.9 1010599
09:00+10wnw91289100 1.9 1012741
12:00+11nw9108096 0.6 1015810
15:00+12nw8107593 0.9 1017722
18:00+11wnw9107593 0.1 1019849
21:00+11wnw477658 0.2 1020160
9 august, tue
tue900:00+9wsw368299 0.0 1021124
03:00+10sw3577100 0.1 1022152
06:00+10s5779100 0.0 1021131
09:00+12sw7873100 0.0 1020375
12:00+15sw91159100 0.0 1019841
15:00+17wsw101255100 0.0 10171227
18:00+17wsw81058100 0.0 10171012
21:00+13w4771100 0.0 1018130
10 august, wed
wed1000:00+11n2387100 0.6 1018115
03:00+10ne2290100 1.5 1018122
06:00+10e2490100 0.9 1016212
09:00+11se3584100 1.1 1015294
12:00+14s5679100 0.0 1013451
15:00+14ssw81184100 0.1 1010471
18:00+14ssw81287100 0.1 1008504
21:00+14ssw8128781 0.1 1006334
11 august, thu
thu1100:00+14ssw8149199 0.1 1004329
03:00+14ssw81386100 0.1 1002392
06:00+14s81393100 1.2 997426
09:00+14wnw131986100 6.6 997817
12:00+12wnw101784100 0.9 1000816
15:00+15wnw13166884 1.5 10011096
18:00+13w71271100 0.1 1002475
21:00+12w478160 0.4 1003188
12 august, fri
fri1200:00+10w510827 0.4 1003224
03:00+10w13197498 0.4 1004940
06:00+9w12187359 0.0 1005952
09:00+11w13186792 0.0 10061476
12:00+12w14186478 0.4 10061639
15:00+12w15196779 0.9 10071598
18:00+11w15216994 0.1 10071718
21:00+10w14207198 0.3 10081361